Location: Ostrava
(49.8330°N, 18.2830°E)
Time: 05:18:17
(UTC+01:00)

Cosmos 1400 Rocket - Visible Passes

Search period start: 21 January 2017 00:00
Search period end: 31 January 2017 00:00
Orbit: 523 x 571 km, 81.2° (Epoch: 20 January)

Date Brightness Start Highest point End Pass type
(mag) Time Alt. Az. Time Alt. Az. Time Alt. Az.
22 Jan 5.9 06:23:08 10° NE 06:23:57 10° ENE 06:24:46 10° ENE visible
23 Jan 5.8 06:17:25 10° NE 06:18:43 11° ENE 06:20:01 10° ENE visible
24 Jan 5.7 06:11:51 10° NE 06:13:29 12° ENE 06:15:08 10° E visible
25 Jan 5.7 06:06:21 10° NNE 06:08:16 13° ENE 06:10:11 10° E visible
26 Jan 5.7 06:00:53 10° NNE 06:03:02 14° ENE 06:05:10 10° E visible
27 Jan 5.7 05:55:27 10° NNE 05:57:47 15° ENE 06:00:09 10° E visible
28 Jan 5.7 05:50:02 10° NNE 05:52:34 16° ENE 05:55:06 10° ESE visible
29 Jan 5.6 05:44:38 10° NNE 05:47:19 17° ENE 05:50:01 10° ESE visible
30 Jan 5.6 05:39:15 10° NNE 05:42:05 18° ENE 05:44:56 10° ESE visible
